TimeBST,TemperatureF,Dew PointF,Humidity,Sea Level PressureIn,VisibilityMPH,Wind Direction,Wind SpeedMPH,Gust SpeedMPH,PrecipitationIn,Events,Conditions,WindDirDegrees,DateUTC
12:50 AM,36,35,92,29.67,6,Calm,Calm,,,,Mist,,2012-10-14 23:50:00
3:50 AM,37,36,95,29.66,7,NE,2.3,,,,Mist,40,2012-10-15 02:50:00
4:20 AM,37.4,35.6,93,29.65,-9999.0,NNW,1.2,-,N/A,,Clear,340,2012-10-15 03:20:00
4:50 AM,37.4,37.4,100,29.62,-9999.0,ENE,1.2,-,N/A,,Clear,70,2012-10-15 03:50:00
5:20 AM,37.4,37.4,100,29.62,-9999.0,NE,1.2,-,N/A,,Clear,40,2012-10-15 04:20:00
5:50 AM,39.2,37.4,93,29.62,-9999.0,WSW,1.2,-,N/A,,Clear,240,2012-10-15 04:50:00
6:20 AM,39.2,39.2,100,29.62,-9999.0,North,1.2,-,N/A,,Clear,350,2012-10-15 05:20:00
6:50 AM,40,39,96,29.65,10,West,1.2,,,,,260,2012-10-15 05:50:00
6:50 AM,39.2,39.2,100,29.62,-9999.0,Calm,Calm,-,N/A,,Clear,0,2012-10-15 05:50:00
7:20 AM,41.0,41.0,100,29.62,6.2,Calm,Calm,-,N/A,,Mostly Cloudy,0,2012-10-15 06:20:00
7:50 AM,41.0,39.2,93,29.62,6.2,Calm,Calm,-,N/A,,Scattered Clouds,0,2012-10-15 06:50:00
8:20 AM,41.0,41.0,100,29.62,6.2,Calm,Calm,-,N/A,,Scattered Clouds,0,2012-10-15 07:20:00
8:50 AM,44.6,44.6,100,29.62,6.2,Calm,Calm,-,N/A,,Scattered Clouds,0,2012-10-15 07:50:00
9:20 AM,48.2,48.2,100,29.62,-9999.0,WSW,4.6,-,N/A,,Clear,250,2012-10-15 08:20:00
9:50 AM,52,48,80,29.65,17,West,8.1,,,,,260,2012-10-15 08:50:00
9:50 AM,51.8,48.2,88,29.62,-9999.0,West,6.9,-,N/A,,Clear,270,2012-10-15 08:50:00
10:20 AM,53.6,48.2,82,29.62,-9999.0,West,13.8,-,N/A,,Clear,260,2012-10-15 09:20:00
10:50 AM,55.4,48.2,77,29.62,6.2,WSW,13.8,-,N/A,,Partly Cloudy,250,2012-10-15 09:50:00
11:20 AM,55.4,46.4,72,29.62,6.2,WSW,13.8,-,N/A,,Partly Cloudy,250,2012-10-15 10:20:00
11:50 AM,59.0,46.4,63,29.62,6.2,West,18.4,-,N/A,,Partly Cloudy,280,2012-10-15 10:50:00
12:20 PM,59.0,46.4,63,29.62,6.2,West,16.1,-,N/A,,Partly Cloudy,270,2012-10-15 11:20:00
12:50 PM,58,45,53,29.63,15,WSW,18.4,,,,Scattered Clouds,250,2012-10-15 11:50:00
12:50 PM,59.0,46.4,63,29.62,6.2,WSW,17.3,-,N/A,,Partly Cloudy,250,2012-10-15 11:50:00
1:20 PM,59.0,46.4,63,29.62,6.2,WSW,17.3,-,N/A,,Scattered Clouds,250,2012-10-15 12:20:00
1:50 PM,59.0,44.6,59,29.59,6.2,SW,17.3,-,N/A,,Partly Cloudy,230,2012-10-15 12:50:00
2:20 PM,59.0,44.6,59,29.59,6.2,WSW,15.0,-,N/A,,Partly Cloudy,250,2012-10-15 13:20:00
2:50 PM,59.0,46.4,63,29.59,6.2,WSW,15.0,-,N/A,,Partly Cloudy,250,2012-10-15 13:50:00
3:20 PM,59.0,48.2,67,29.59,6.2,WSW,16.1,-,N/A,,Scattered Clouds,240,2012-10-15 14:20:00
3:50 PM,54,50,82,29.61,15,WSW,12.7,,,Rain,Rain Showers,240,2012-10-15 14:50:00
3:50 PM,55.4,50.0,82,29.59,6.2,WSW,16.1,27.6,N/A,Rain,Light Rain Showers,240,2012-10-15 14:50:00
4:20 PM,55.4,50.0,82,29.59,6.2,WSW,13.8,-,N/A,,Scattered Clouds,240,2012-10-15 15:20:00
4:50 PM,55.4,50.0,82,29.59,6.2,SW,13.8,-,N/A,,Scattered Clouds,230,2012-10-15 15:50:00
5:20 PM,55.4,50.0,82,29.59,6.2,WSW,12.7,-,N/A,,Scattered Clouds,240,2012-10-15 16:20:00
5:50 PM,55.4,48.2,77,29.59,6.2,WSW,13.8,-,N/A,,Scattered Clouds,240,2012-10-15 16:50:00
6:20 PM,55.4,46.4,72,29.59,6.2,SW,10.4,-,N/A,,Scattered Clouds,230,2012-10-15 17:20:00
6:50 PM,55.4,48.2,77,29.56,6.2,SW,11.5,-,N/A,,Scattered Clouds,230,2012-10-15 17:50:00
7:20 PM,53.6,50.0,88,29.56,6.2,SW,9.2,-,N/A,,Scattered Clouds,230,2012-10-15 18:20:00
7:50 PM,53.6,50.0,88,29.56,6.2,SSW,8.1,-,N/A,,Mostly Cloudy,210,2012-10-15 18:50:00
8:20 PM,53.6,50.0,88,29.56,3.7,SW,11.5,-,N/A,Rain,Rain Showers,220,2012-10-15 19:20:00
8:50 PM,53.6,50.0,88,29.53,6.2,SSW,9.2,-,N/A,,Mostly Cloudy,210,2012-10-15 19:50:00
9:20 PM,55.4,50.0,82,29.53,6.2,SSW,10.4,-,N/A,,Mostly Cloudy,210,2012-10-15 20:20:00
9:50 PM,55,51,82,29.52,9,SSW,15.0,,,Rain,Light Rain Showers,210,2012-10-15 20:50:00
9:50 PM,55.4,51.8,88,29.50,6.2,SSW,12.7,-,N/A,Rain,Light Rain Showers,210,2012-10-15 20:50:00
10:20 PM,55.4,51.8,88,29.50,6.2,SSW,18.4,-,N/A,,Mostly Cloudy,210,2012-10-15 21:20:00
10:50 PM,53.6,51.8,94,29.47,5.0,SSW,21.9,34.5,N/A,Rain,Rain,200,2012-10-15 21:50:00
11:20 PM,53.6,53.6,100,29.44,2.5,SSW,19.6,33.4,N/A,Rain,Rain,200,2012-10-15 22:20:00